Concordia, KS

4:00 PM CST on February 24, 2018 (GMT -0600)
Blosser Municipal

Weather History for KCNK - July, 2012

Change the Weather History Date:

Sunday, July 29, 2012

  Actual Average Record
Temperature  
Mean Temperature 88 °F 79 °F  
Max Temperature 103 °F 91 °F 107 °F (1980)
Min Temperature 73 °F 68 °F 51 °F (1994)
Degree Days  
Heating Degree Days 0 0  
Month to date heating degree days 0 0  
Since 1 June heating degree days 13 13  
Since 1 July heating degree days 0 0  
Cooling Degree Days 23 14  
Month to date cooling degree days 549 402  
Year to date cooling degree days 1192 756  
Since 1 June cooling degree days 948 667  
Growing Degree Days 38 (Base 50)    
Moisture  
Dew Point 65 °F    
Average Humidity 51    
Maximum Humidity 73    
Minimum Humidity 29    
Precipitation  
Precipitation 0.00 in 0.11 in 1.94 in (1909)
Month to date precipitation 1.22 3.69  
Year to date precipitation 14.91 17.73  
Snow  
Snow 0.00 in 0.00 in T in (1901)
Month to date snowfall 0.0 0.0  
Year to date snowfall 5.8 13.7  
Since 1 July snowfall 0.0 0.0  
Snow Depth 0.00 in    
Sea Level Pressure  
Sea Level Pressure 29.87 in    
Wind  
Wind Speed 7 mph (ESE)    
Max Wind Speed 17 mph    
Max Gust Speed 22 mph    
Visibility 10 miles    
Events      
T = Trace of Precipitation, MM = Missing Value Source: NWS Daily Summary

Daily Weather History Graph

Daily Weather History Graph

Search for Another Location

Airport or City:

Trip Planner

Search our weather history database for the weather conditions in past years. The results will help you decide how hot, cold, wet, or windy it might be!

Date:

Astronomy

Jul. 29, 2012 Rise Set
Actual Time 6:27 AM CDT 8:45 PM CDT
Civil Twilight 5:57 AM CDT 9:15 PM CDT
Nautical Twilight 5:20 AM CDT 9:53 PM CDT
Astronomical Twilight 4:39 AM CDT 10:33 PM CDT
Moon 5:53 PM CDT (7/29) 2:43 AM CDT (7/29)
Length of Visible Light 15h 18m
Length of Day
14h 17m
Waxing Gibbous, 85% of the Moon is Illuminated
Jul 29
Waxing Gibbous
Aug 1
Full
Aug 9
Last Quarter
Aug 17
New
Aug 24
First Quarter

Hourly Weather History & Observations

Time (CDT) Temp. Heat Index Dew Point Humidity Pressure Visibility Wind Dir Wind Speed Gust Speed Precip Events Conditions
12:55 AM 81.0 °F 82.5 °F 64.0 °F 56% 29.92 in 10.0 mi SSE 12.7 mph - N/A   Clear
1:55 AM 79.0 °F - 64.9 °F 62% 29.92 in 10.0 mi South 15.0 mph - N/A   Clear
2:55 AM 77.0 °F - 64.9 °F 66% 29.89 in 10.0 mi South 8.1 mph - N/A   Clear
3:55 AM 73.9 °F - 64.9 °F 73% 29.87 in 10.0 mi South 3.5 mph - N/A   Clear
4:55 AM 77.0 °F - 63.0 °F 62% 29.86 in 10.0 mi SSW 8.1 mph - N/A   Clear
5:55 AM 78.1 °F - 63.0 °F 60% 29.86 in 10.0 mi SSW 9.2 mph - N/A   Clear
6:55 AM 78.1 °F - 64.0 °F 62% 29.87 in 10.0 mi SW 9.2 mph - N/A   Clear
7:55 AM 81.0 °F 82.7 °F 64.9 °F 58% 29.88 in 10.0 mi SW 9.2 mph - N/A   Partly Cloudy
8:55 AM 84.0 °F 87.0 °F 68.0 °F 58% 29.90 in 10.0 mi North 9.2 mph - N/A   Clear
9:55 AM 86.0 °F 88.8 °F 66.9 °F 53% 29.91 in 10.0 mi North 8.1 mph - N/A   Clear
10:55 AM 90.0 °F 92.8 °F 66.9 °F 46% 29.91 in 10.0 mi North 9.2 mph - N/A   Clear
11:55 AM 93.9 °F 96.1 °F 64.9 °F 38% 29.90 in 10.0 mi Variable 4.6 mph - N/A   Clear
12:55 PM 97.0 °F 99.3 °F 64.0 °F 34% 29.89 in 10.0 mi Variable 4.6 mph - N/A   Clear
1:55 PM 99.0 °F 102.3 °F 64.9 °F 33% 29.88 in 10.0 mi ENE 8.1 mph - N/A   Clear
2:55 PM 100.9 °F 102.7 °F 62.1 °F 28% 29.86 in 10.0 mi Calm Calm - N/A   Clear
3:55 PM 100.9 °F 103.3 °F 63.0 °F 29% 29.86 in 10.0 mi East 4.6 mph - N/A   Clear
4:55 PM 100.9 °F 104.0 °F 64.0 °F 30% 29.83 in 10.0 mi Calm Calm - N/A   Clear
5:55 PM 100.0 °F 103.0 °F 64.0 °F 31% 29.82 in 10.0 mi Variable 3.5 mph - N/A   Clear
6:55 PM 97.0 °F 101.0 °F 66.9 °F 37% 29.81 in 10.0 mi ENE 4.6 mph - N/A   Clear
7:55 PM 93.0 °F 95.9 °F 66.0 °F 41% 29.80 in 10.0 mi ENE 6.9 mph - N/A   Clear
8:55 PM 89.1 °F 91.0 °F 64.9 °F 45% 29.81 in 10.0 mi NE 4.6 mph - N/A   Clear
9:55 PM 84.9 °F 86.6 °F 64.9 °F 51% 29.84 in 10.0 mi ENE 4.6 mph - N/A   Clear
10:55 PM 84.9 °F 85.9 °F 63.0 °F 48% 29.85 in 10.0 mi East 6.9 mph - N/A   Clear
11:55 PM 82.9 °F 83.7 °F 62.1 °F 49% 29.84 in 10.0 mi East 6.9 mph - N/A   Clear